Location: Hilton Head Island
(32.2163°N, 80.7526°W)
Time: 18:57:15
(UTC-04:00)

Altair - Pass Details

Date: 16 February 2026
Orbit: 1502 x 1682 km, 47.2° (Epoch: 10 March)

Event Time Altitude Azimuth Distance (km) Brightness Sun altitude
Exits shadow 02:49:23 21° 98° (E) 2,900 9.1 -53.7°
Drops below altitude 10° 02:53:14 10° 76° (ENE) 3,678 9.9 -53.0°
Sets 02:56:57 0° 64° (ENE) 4,683 10.6 -52.3°
